Miscellaneous Local Product
Issued by NWS Hastings, NE

Home | Current Version | Previous Version | Text Only | Print | Product List | Glossary Off
Versions: 1 2 3 4 5 6 7 8 9 10 11 12 13 14 15 16 17 18 19 20 21 22 23 24 25 26 27 28 29 30 31 32 33 34 35 36 37 38 39 40 41 42 43 44 45 46 47 48 49 50

000
AXUS43 KGID 171402
MISGRI

GID CWA HOURLY WEATHER ROUNDUP
NATIONAL WEATHER SERVICE HASTINGS NE
900 AM CDT WED SEP 17 2014

NOTE: "FAIR" INDICATES FEW OR NO CLOUDS BELOW 12,000 FEET WITH NO
SIGNIFICANT WEATHER AND/OR OBSTRUCTIONS TO VISIBILITY.

...SOUTH CENTRAL NEBRASKA...

CITY           SKY/WX    TMP DP  RH WIND       PRES   REMARKS
GRAND ISLAND   SUNNY     56  51  84 NE6       29.93F
HASTINGS       SUNNY     56  50  80 N6        29.93F
KEARNEY        SUNNY     52  50  93 N5        29.94F
ORD            PTSUNNY   51  50  96 CALM      29.93S FOG
YORK           SUNNY     54  54 100 N3        29.94S
AURORA         SUNNY     53  52  95 NE3       29.93F
LEXINGTON      SUNNY     49  49  97 W5        29.95R FOG
HOLDREGE       SUNNY     54  52  92 CALM      29.93S
HEBRON         FOG       61  59  94 CALM      29.93S VSB 1/4

...NEBRASKA PANHANDLE...

CITY           SKY/WX    TMP DP  RH WIND       PRES   REMARKS
CHADRON        SUNNY     51  47  86 SW3       29.97S
ALLIANCE       MOSUNNY   52  48  86 W7        29.99R
SCOTTSBLUFF    SUNNY     55  47  74 W5        30.01R
SIDNEY         MOSUNNY   53  43  68 NW9       30.01R

...WESTERN AND NORTH CENTRAL NEBRASKA...

CITY           SKY/WX    TMP DP  RH WIND       PRES   REMARKS
VALENTINE      MOSUNNY   54  53  97 SW3       29.93F
AINSWORTH      MOSUNNY   55  55  99 CALM      29.94S
ONEILL         SUNNY     55  55 100 S3        29.93S FOG
BROKEN BOW     SUNNY     52  51  97 CALM      29.94F
IMPERIAL       SUNNY     56  50  80 N5        29.98S
NORTH PLATTE   FOG       51  51 100 CALM      29.95F VSB<1/4
MCCOOK         FOG       52  51  97 W6        29.96R VSB 1/4

...EASTERN NEBRASKA...

CITY           SKY/WX    TMP DP  RH WIND       PRES   REMARKS
NORFOLK        SUNNY     57  53  86 CALM      29.93F
SO SIOUX CITY  SUNNY     60  54  80 SE3       29.94R
TEKAMAH        SUNNY     59  54  83 S5        29.93S
ALBION         SUNNY     51  48  89 CALM      29.94S
OMAHA EPPLEY   MOSUNNY   61  55  81 S5        29.94R
OFFUTT AFB     SUNNY     62  62  99 E6        29.93S
MILLARD        SUNNY     61  56  83 SE5       29.93R
LINCOLN        CLOUDY    60  55  83 CALM      29.94S
NEBRASKA CITY  CLOUDY    61  57  87 CALM      29.94S
BEATRICE       CLOUDY    63  61  96 CALM      29.93S FOG
FALLS CITY     CLOUDY    63  61  93 E6        29.93R

...NORTHERN KANSAS...

CITY           SKY/WX    TMP DP  RH WIND       PRES   REMARKS
GOODLAND       SUNNY     61  52  72 W3        29.99S
HILL CITY      FOG       55  55 100 NW3       29.93F VSB 1
NORTON         SUNNY     55  54  94 CALM      29.94R
PHILLIPSBURG   MOSUNNY   57  57 100 N6        29.93R FOG
SMITH CENTER   FOG       57  57 100 N8        29.92F VSB 1/2
BELOIT         CLOUDY    63  63 100 N3        29.90S VSB 1/4
HAYS           SUNNY     61  57  88 NW5       29.92S
RUSSELL        SUNNY     65  62  90 W6        29.90S
CONCORDIA      FOG       64  64 100 N6        29.92R VSB 1/4
SALINA         SUNNY     69  66  90 CALM      29.90S FOG
TOPEKA         CLOUDY    67  66  97 SE5       29.92S FOG



USA.gov is the U.S. government's official web portal to all federal, state and local government web resources and services.